| time (UTC) | temp F | wind direction | speed MPH | gust MPH | rain 1hr in | rain 24hr in | rain mn in | humidity % | barometer mb |
| 20260505183225 | 74 | 355 | 1.0 | 1.0 | 0.00 | 0.00 | 0.00 | 61 | 1033.4 |
| 20260505182721 | 76 | 5 | 0.0 | 0.0 | 0.00 | 0.00 | 0.00 | 63 | 1033.4 |
| 20260505182218 | 75 | 13 | 0.0 | 0.0 | 0.00 | 0.00 | 0.00 | 61 | 1033.7 |
| 20260505181713 | 73 | 358 | 0.0 | 0.0 | 0.00 | 0.00 | 0.00 | 63 | 1033.5 |
| 20260505181212 | 73 | 24 | 0.0 | 0.0 | 0.00 | 0.00 | 0.00 | 64 | 1033.7 |
| 20260505180708 | 74 | 307 | 3.0 | 4.0 | 0.00 | 0.00 | 0.00 | 66 | 1033.8 |
| 20260505180205 | 74 | 17 | 0.0 | 0.0 | 0.00 | 0.00 | 0.00 | 62 | 1033.7 |
| 20260505175701 | 73 | 12 | 0.0 | 0.0 | 0.00 | 0.00 | 0.00 | 65 | 1033.6 |
| 20260505175158 | 73 | 324 | 1.0 | 2.0 | 0.00 | 0.00 | 0.00 | 66 | 1033.7 |
| 20260505174654 | 73 | 344 | 2.0 | 3.0 | 0.00 | 0.00 | 0.00 | 66 | 1033.8 |
| 20260505174150 | 72 | 2 | 0.0 | 1.0 | 0.00 | 0.00 | 0.00 | 66 | 1034.2 |
| 20260505173646 | 72 | 16 | 2.0 | 3.0 | 0.00 | 0.00 | 0.00 | 64 | 1034.1 |
| 20260505173144 | 73 | 13 | 0.0 | 0.0 | 0.00 | 0.00 | 0.00 | 65 | 1034.2 |
| 20260505172641 | 73 | 318 | 2.0 | 2.0 | 0.00 | 0.00 | 0.00 | 66 | 1034.0 |
| 20260505172138 | 74 | 8 | 0.0 | 1.0 | 0.00 | 0.00 | 0.00 | 60 | 1034.3 |
| 20260505171637 | 74 | 24 | 0.0 | 1.0 | 0.00 | 0.00 | 0.00 | 58 | 1034.3 |
| 20260505171135 | 73 | 348 | 0.0 | 0.0 | 0.00 | 0.00 | 0.00 | 66 | 1034.1 |
| 20260505170632 | 73 | 343 | 0.0 | 2.0 | 0.00 | 0.00 | 0.00 | 63 | 1034.3 |
| 20260505170128 | 72 | 330 | 1.0 | 2.0 | 0.00 | 0.00 | 0.00 | 60 | 1034.3 |
| 20260505165623 | 71 | 13 | 1.0 | 2.0 | 0.00 | 0.00 | 0.00 | 67 | 1034.5 |
| 20260505165120 | 72 | 321 | 3.0 | 3.0 | 0.00 | 0.00 | 0.00 | 66 | 1034.6 |
| 20260505164615 | 72 | 354 | 2.0 | 2.0 | 0.00 | 0.00 | 0.00 | 65 | 1034.5 |
| 20260505164114 | 72 | 339 | 2.0 | 2.0 | 0.00 | 0.00 | 0.00 | 64 | 1034.3 |
| 20260505163612 | 72 | 17 | 0.0 | 0.0 | 0.00 | 0.00 | 0.00 | 66 | 1034.5 |
| 20260505163109 | 72 | 346 | 2.0 | 3.0 | 0.00 | 0.00 | 0.00 | 65 | 1034.8 |
| 20260505162606 | 72 | 25 | 2.0 | 2.0 | 0.00 | 0.00 | 0.00 | 63 | 1034.4 |
| 20260505162104 | 72 | 337 | 1.0 | 1.0 | 0.00 | 0.00 | 0.00 | 64 | 1034.7 |
| 20260505161601 | 71 | 1 | 0.0 | 1.0 | 0.00 | 0.00 | 0.00 | 66 | 1034.5 |
| 20260505161058 | 70 | 335 | 3.0 | 4.0 | 0.00 | 0.00 | 0.00 | 68 | 1034.4 |
| 20260505160555 | 70 | 345 | 1.0 | 2.0 | 0.00 | 0.00 | 0.00 | 68 | 1034.6 |
| 20260505153032 | 69 | 27 | 0.0 | 0.0 | 0.00 | 0.00 | 0.00 | 69 | 1034.8 |
| 20260505152529 | 70 | 18 | 0.0 | 0.0 | 0.00 | 0.00 | 0.00 | 70 | 1034.8 |
| 20260505152025 | 70 | 16 | 0.0 | 0.0 | 0.00 | 0.00 | 0.00 | 69 | 1034.6 |
| 20260505151520 | 70 | 356 | 0.0 | 1.0 | 0.00 | 0.00 | 0.00 | 73 | 1034.6 |
| 20260505151018 | 69 | 18 | 0.0 | 0.0 | 0.00 | 0.00 | 0.00 | 69 | 1034.8 |
| 20260505150514 | 69 | 17 | 1.0 | 1.0 | 0.00 | 0.00 | 0.00 | 70 | 1034.8 |
| 20260505140439 | 64 | 354 | 0.0 | 0.0 | 0.00 | 0.00 | 0.00 | 78 | 1035.0 |
| 20260505124852 | 57 | 96 | 0.0 | 0.0 | 0.00 | 0.00 | 0.00 | 90 | 1034.1 |
| 20260505124349 | 57 | 180 | 2.0 | 2.0 | 0.00 | 0.00 | 0.00 | 91 | 1033.8 |
| 20260505123845 | 56 | 178 | 0.0 | 0.0 | 0.00 | 0.00 | 0.00 | 92 | 1033.8 |
| 20260505123342 | 56 | 163 | 0.0 | 0.0 | 0.00 | 0.00 | 0.00 | 92 | 1033.6 |
| 20260505122837 | 55 | 178 | 1.0 | 1.0 | 0.00 | 0.00 | 0.00 | 93 | 1033.7 |
| 20260505122330 | 55 | 171 | 1.0 | 1.0 | 0.00 | 0.00 | 0.00 | 93 | 1033.7 |
| 20260505121826 | 54 | 179 | 1.0 | 2.0 | 0.00 | 0.00 | 0.00 | 93 | 1033.6 |
| 20260505121324 | 54 | 185 | 1.0 | 1.0 | 0.00 | 0.00 | 0.00 | 93 | 1033.5 |
| 20260505120819 | 54 | 173 | 0.0 | 0.0 | 0.00 | 0.00 | 0.00 | 93 | 1033.5 |
| 20260505120316 | 54 | 172 | 1.0 | 1.0 | 0.00 | 0.00 | 0.00 | 93 | 1033.6 |
| 20260505115814 | 54 | 182 | 2.0 | 2.0 | 0.00 | 0.00 | 0.00 | 93 | 1033.4 |
| 20260505115312 | 53 | 21 | 0.0 | 0.0 | 0.00 | 0.00 | 0.00 | 94 | 1033.4 |
| 20260505114810 | 53 | 18 | 0.0 | 0.0 | 0.00 | 0.00 | 0.00 | 93 | 1033.2 |
| 20260505114306 | 53 | 32 | 0.0 | 0.0 | 0.00 | 0.00 | 0.00 | 93 | 1033.1 |
| 20260505113803 | 53 | 39 | 0.0 | 0.0 | 0.00 | 0.00 | 0.00 | 93 | 1033.3 |
| 20260505113259 | 53 | 74 | 0.0 | 0.0 | 0.00 | 0.00 | 0.00 | 93 | 1033.2 |
| 20260505112754 | 53 | 42 | 0.0 | 0.0 | 0.00 | 0.00 | 0.00 | 93 | 1033.0 |
| 20260505112252 | 53 | 42 | 0.0 | 0.0 | 0.00 | 0.00 | 0.00 | 93 | 1033.0 |
| 20260505111753 | 53 | 42 | 0.0 | 0.0 | 0.00 | 0.00 | 0.00 | 92 | 1033.0 |
| 20260505111249 | 53 | 42 | 0.0 | 0.0 | 0.00 | 0.00 | 0.00 | 92 | 1032.8 |
| 20260505110745 | 53 | 44 | 0.0 | 0.0 | 0.00 | 0.00 | 0.00 | 92 | 1032.8 |
| 20260505110243 | 53 | 41 | 0.0 | 0.0 | 0.00 | 0.00 | 0.00 | 92 | 1033.1 |
| 20260505102218 | 54 | 181 | 0.0 | 0.0 | 0.00 | 0.00 | 0.00 | 92 | 1032.5 |
| 20260505101717 | 54 | 188 | 0.0 | 0.0 | 0.00 | 0.00 | 0.00 | 91 | 1032.6 |
| 20260505101212 | 55 | 187 | 0.0 | 0.0 | 0.00 | 0.00 | 0.00 | 90 | 1032.7 |
| 20260505100709 | 55 | 21 | 0.0 | 0.0 | 0.00 | 0.00 | 0.00 | 88 | 1032.6 |
| 20260505100206 | 55 | 21 | 0.0 | 0.0 | 0.00 | 0.00 | 0.00 | 88 | 1032.5 |
| 20260505095701 | 56 | 20 | 0.0 | 0.0 | 0.00 | 0.00 | 0.00 | 88 | 1032.6 |
| 20260505095200 | 56 | 19 | 0.0 | 0.0 | 0.00 | 0.00 | 0.00 | 88 | 1032.6 |
| 20260505094655 | 55 | 20 | 0.0 | 0.0 | 0.00 | 0.00 | 0.00 | 88 | 1032.7 |
| 20260505094151 | 55 | 19 | 0.0 | 0.0 | 0.00 | 0.00 | 0.00 | 88 | 1033.0 |
| 20260505093648 | 55 | 20 | 0.0 | 0.0 | 0.00 | 0.00 | 0.00 | 89 | 1032.9 |
| 20260505093145 | 55 | 20 | 0.0 | 0.0 | 0.00 | 0.00 | 0.00 | 89 | 1032.8 |
| 20260505092642 | 55 | 31 | 0.0 | 0.0 | 0.00 | 0.00 | 0.00 | 89 | 1033.1 |
| 20260505092141 | 55 | 31 | 0.0 | 0.0 | 0.00 | 0.00 | 0.00 | 88 | 1032.9 |
| 20260505091638 | 55 | 31 | 0.0 | 0.0 | 0.00 | 0.00 | 0.00 | 87 | 1032.9 |
| 20260505091136 | 56 | 31 | 0.0 | 0.0 | 0.00 | 0.00 | 0.00 | 87 | 1032.9 |
| 20260505090633 | 56 | 31 | 0.0 | 0.0 | 0.00 | 0.00 | 0.00 | 87 | 1033.1 |
| 20260505090131 | 56 | 31 | 0.0 | 0.0 | 0.00 | 0.00 | 0.00 | 87 | 1033.0 |
| 20260505085628 | 56 | 31 | 0.0 | 0.0 | 0.00 | 0.00 | 0.00 | 86 | 1032.8 |
| 20260505085126 | 56 | 31 | 0.0 | 0.0 | 0.00 | 0.00 | 0.00 | 86 | 1033.1 |
| 20260505084623 | 56 | 31 | 0.0 | 0.0 | 0.00 | 0.00 | 0.00 | 86 | 1033.3 |
| 20260505084122 | 56 | 31 | 0.0 | 0.0 | 0.00 | 0.00 | 0.00 | 86 | 1033.0 |
| 20260505083619 | 56 | 30 | 0.0 | 0.0 | 0.00 | 0.00 | 0.00 | 85 | 1033.1 |
| 20260505083115 | 56 | 30 | 0.0 | 0.0 | 0.00 | 0.00 | 0.00 | 85 | 1033.2 |
| 20260505082611 | 57 | 30 | 0.0 | 0.0 | 0.00 | 0.00 | 0.00 | 84 | 1033.1 |
| 20260505082109 | 57 | 32 | 0.0 | 0.0 | 0.00 | 0.00 | 0.00 | 84 | 1033.5 |
| 20260505081605 | 57 | 32 | 0.0 | 0.0 | 0.00 | 0.00 | 0.00 | 84 | 1033.3 |
| 20260505081102 | 57 | 34 | 0.0 | 0.0 | 0.00 | 0.00 | 0.00 | 83 | 1033.2 |
| 20260505080558 | 57 | 34 | 0.0 | 0.0 | 0.00 | 0.00 | 0.00 | 83 | 1033.3 |
| 20260505080055 | 57 | 34 | 0.0 | 0.0 | 0.00 | 0.00 | 0.00 | 83 | 1033.2 |
| 20260505075551 | 57 | 34 | 0.0 | 0.0 | 0.00 | 0.00 | 0.00 | 82 | 1033.3 |
| 20260505075048 | 57 | 34 | 0.0 | 0.0 | 0.00 | 0.00 | 0.00 | 82 | 1033.2 |
| 20260505074544 | 58 | 34 | 0.0 | 0.0 | 0.00 | 0.00 | 0.00 | 82 | 1033.3 |
| 20260505074042 | 58 | 34 | 0.0 | 0.0 | 0.00 | 0.00 | 0.00 | 80 | 1033.4 |
| 20260505073539 | 58 | 36 | 0.0 | 0.0 | 0.00 | 0.00 | 0.00 | 80 | 1033.6 |
| 20260505073038 | 58 | 16 | 0.0 | 0.0 | 0.00 | 0.00 | 0.00 | 80 | 1033.4 |
| 20260505072533 | 58 | 12 | 0.0 | 0.0 | 0.00 | 0.00 | 0.00 | 79 | 1033.5 |
| 20260505072030 | 58 | 13 | 0.0 | 0.0 | 0.00 | 0.00 | 0.00 | 79 | 1033.4 |
| 20260505071525 | 58 | 13 | 0.0 | 0.0 | 0.00 | 0.00 | 0.00 | 79 | 1033.4 |
| 20260505071024 | 58 | 278 | 0.0 | 0.0 | 0.00 | 0.00 | 0.00 | 80 | 1033.5 |
| 20260505070520 | 58 | 346 | 0.0 | 0.0 | 0.00 | 0.00 | 0.00 | 78 | 1033.4 |
| 20260505070016 | 58 | 346 | 0.0 | 0.0 | 0.00 | 0.00 | 0.00 | 80 | 1033.5 |
| 20260505065512 | 58 | 346 | 0.0 | 0.0 | 0.00 | 0.00 | 0.00 | 81 | 1033.4 |
| 20260505065009 | 58 | 340 | 0.0 | 0.0 | 0.00 | 0.00 | 0.00 | 81 | 1033.4 |
| 20260505064506 | 59 | 353 | 0.0 | 0.0 | 0.00 | 0.00 | 0.00 | 78 | 1033.4 |
| 20260505064005 | 59 | 353 | 0.0 | 0.0 | 0.00 | 0.00 | 0.00 | 78 | 1033.4 |
| 20260505063501 | 59 | 351 | 0.0 | 0.0 | 0.00 | 0.00 | 0.00 | 79 | 1033.8 |
| 20260505062957 | 60 | 354 | 0.0 | 0.0 | 0.00 | 0.00 | 0.00 | 77 | 1033.4 |
| 20260505062454 | 60 | 355 | 0.0 | 0.0 | 0.00 | 0.00 | 0.00 | 76 | 1033.3 |
| 20260505061951 | 60 | 355 | 0.0 | 0.0 | 0.00 | 0.00 | 0.00 | 74 | 1033.5 |
| 20260505061449 | 60 | 355 | 0.0 | 0.0 | 0.00 | 0.00 | 0.00 | 73 | 1033.5 |
| 20260505060946 | 60 | 355 | 0.0 | 0.0 | 0.00 | 0.00 | 0.00 | 74 | 1033.5 |
| 20260505060443 | 60 | 355 | 0.0 | 0.0 | 0.00 | 0.00 | 0.00 | 74 | 1033.7 |
| 20260505055940 | 60 | 352 | 0.0 | 0.0 | 0.00 | 0.00 | 0.00 | 74 | 1033.8 |
| 20260505055436 | 59 | 349 | 0.0 | 0.0 | 0.00 | 0.00 | 0.00 | 74 | 1033.8 |
| 20260505054932 | 59 | 355 | 0.0 | 0.0 | 0.00 | 0.00 | 0.00 | 77 | 1033.7 |
| 20260505054430 | 59 | 3 | 0.0 | 0.0 | 0.00 | 0.00 | 0.00 | 78 | 1033.4 |
| 20260505053928 | 59 | 7 | 0.0 | 0.0 | 0.00 | 0.00 | 0.00 | 78 | 1033.7 |
| 20260505053425 | 58 | 7 | 0.0 | 0.0 | 0.00 | 0.00 | 0.00 | 79 | 1033.7 |
| 20260505052922 | 59 | 10 | 0.0 | 0.0 | 0.00 | 0.00 | 0.00 | 78 | 1033.6 |
| 20260505052418 | 59 | 8 | 0.0 | 0.0 | 0.00 | 0.00 | 0.00 | 77 | 1033.4 |
| 20260505051916 | 59 | 8 | 0.0 | 0.0 | 0.00 | 0.00 | 0.00 | 78 | 1033.6 |
| 20260505051413 | 60 | 8 | 0.0 | 0.0 | 0.00 | 0.00 | 0.00 | 77 | 1033.6 |
| 20260505050911 | 60 | 7 | 0.0 | 0.0 | 0.00 | 0.00 | 0.00 | 75 | 1033.6 |
| 20260505050409 | 60 | 22 | 0.0 | 0.0 | 0.00 | 0.00 | 0.00 | 75 | 1033.6 |
| 20260505041336 | 63 | 118 | 0.0 | 0.0 | 0.00 | 0.00 | 0.00 | 67 | 1033.2 |
| 20260505040833 | 63 | 186 | 0.0 | 1.0 | 0.00 | 0.00 | 0.00 | 67 | 1033.4 |
| 20260505040331 | 63 | 183 | 0.0 | 0.0 | 0.00 | 0.00 | 0.00 | 66 | 1033.4 |
| 20260505035828 | 62 | 45 | 0.0 | 0.0 | 0.00 | 0.00 | 0.00 | 65 | 1033.4 |
| 20260505035323 | 63 | 209 | 1.0 | 2.0 | 0.00 | 0.00 | 0.00 | 66 | 1033.2 |
| 20260505034821 | 63 | 344 | 0.0 | 0.0 | 0.00 | 0.00 | 0.00 | 64 | 1033.4 |
| 20260505034317 | 63 | 294 | 0.0 | 0.0 | 0.00 | 0.00 | 0.00 | 66 | 1033.3 |
| 20260505033815 | 63 | 348 | 0.0 | 0.0 | 0.00 | 0.00 | 0.00 | 63 | 1033.4 |
| 20260505033311 | 64 | 345 | 0.0 | 0.0 | 0.00 | 0.00 | 0.00 | 63 | 1033.3 |
| 20260505032810 | 63 | 334 | 0.0 | 0.0 | 0.00 | 0.00 | 0.00 | 64 | 1033.4 |
| 20260505032305 | 64 | 317 | 0.0 | 0.0 | 0.00 | 0.00 | 0.00 | 64 | 1033.3 |
| 20260505031803 | 64 | 346 | 0.0 | 0.0 | 0.00 | 0.00 | 0.00 | 63 | 1033.2 |
| 20260505031259 | 64 | 330 | 0.0 | 0.0 | 0.00 | 0.00 | 0.00 | 64 | 1033.2 |
| 20260505030757 | 65 | 338 | 0.0 | 0.0 | 0.00 | 0.00 | 0.00 | 60 | 1033.2 |
| 20260505030252 | 64 | 338 | 0.0 | 0.0 | 0.00 | 0.00 | 0.00 | 62 | 1033.3 |
| 20260505025747 | 64 | 338 | 0.0 | 0.0 | 0.00 | 0.00 | 0.00 | 62 | 1033.2 |
| 20260505025246 | 65 | 337 | 0.0 | 0.0 | 0.00 | 0.00 | 0.00 | 62 | 1033.4 |
| 20260505024744 | 65 | 351 | 0.0 | 0.0 | 0.00 | 0.00 | 0.00 | 59 | 1033.4 |
| 20260505024241 | 65 | 351 | 0.0 | 0.0 | 0.00 | 0.00 | 0.00 | 62 | 1033.5 |
| 20260505023738 | 65 | 351 | 0.0 | 0.0 | 0.00 | 0.00 | 0.00 | 62 | 1033.4 |
| 20260505023235 | 65 | 351 | 0.0 | 0.0 | 0.00 | 0.00 | 0.00 | 62 | 1033.4 |
| 20260505022733 | 65 | 351 | 0.0 | 0.0 | 0.00 | 0.00 | 0.00 | 64 | 1033.1 |
| 20260505022230 | 66 | 351 | 0.0 | 0.0 | 0.00 | 0.00 | 0.00 | 63 | 1033.3 |
| 20260505021726 | 66 | 351 | 0.0 | 0.0 | 0.00 | 0.00 | 0.00 | 60 | 1033.1 |
| 20260505021223 | 66 | 351 | 0.0 | 0.0 | 0.00 | 0.00 | 0.00 | 58 | 1033.1 |
| 20260505020719 | 66 | 351 | 0.0 | 0.0 | 0.00 | 0.00 | 0.00 | 61 | 1033.4 |
| 20260505020214 | 66 | 351 | 0.0 | 0.0 | 0.00 | 0.00 | 0.00 | 58 | 1033.3 |
| 20260505015712 | 66 | 351 | 0.0 | 0.0 | 0.00 | 0.00 | 0.00 | 58 | 1033.1 |
| 20260505015209 | 67 | 351 | 0.0 | 0.0 | 0.00 | 0.00 | 0.00 | 59 | 1033.1 |
| 20260505014706 | 67 | 351 | 0.0 | 0.0 | 0.00 | 0.00 | 0.00 | 56 | 1033.0 |
| 20260505014203 | 67 | 351 | 0.0 | 0.0 | 0.00 | 0.00 | 0.00 | 58 | 1033.0 |
| 20260505013659 | 67 | 351 | 0.0 | 0.0 | 0.00 | 0.00 | 0.00 | 61 | 1032.8 |
| 20260505013151 | 67 | 351 | 0.0 | 0.0 | 0.00 | 0.00 | 0.00 | 60 | 1032.8 |
| 20260505012650 | 68 | 351 | 0.0 | 0.0 | 0.00 | 0.00 | 0.00 | 57 | 1032.9 |
| 20260505012147 | 68 | 351 | 0.0 | 0.0 | 0.00 | 0.00 | 0.00 | 55 | 1032.8 |
| 20260505011642 | 68 | 351 | 0.0 | 0.0 | 0.00 | 0.00 | 0.00 | 55 | 1032.7 |
| 20260505011140 | 68 | 351 | 0.0 | 0.0 | 0.00 | 0.00 | 0.00 | 54 | 1033.0 |
| 20260505010640 | 68 | 352 | 0.0 | 0.0 | 0.00 | 0.00 | 0.00 | 54 | 1032.7 |
| 20260505010137 | 68 | 351 | 0.0 | 0.0 | 0.00 | 0.00 | 0.00 | 54 | 1032.7 |
| 20260505005632 | 69 | 353 | 0.0 | 0.0 | 0.00 | 0.00 | 0.00 | 55 | 1032.7 |
| 20260505005130 | 69 | 353 | 0.0 | 0.0 | 0.00 | 0.00 | 0.00 | 52 | 1032.6 |
| 20260505004627 | 70 | 353 | 0.0 | 0.0 | 0.00 | 0.00 | 0.00 | 53 | 1032.6 |
| 20260505004123 | 70 | 356 | 0.0 | 0.0 | 0.00 | 0.00 | 0.00 | 50 | 1032.7 |
| 20260505003621 | 71 | 356 | 0.0 | 0.0 | 0.00 | 0.00 | 0.00 | 49 | 1032.7 |
| 20260505003118 | 71 | 355 | 0.0 | 0.0 | 0.00 | 0.00 | 0.00 | 49 | 1032.6 |
| 20260505002614 | 71 | 357 | 0.0 | 0.0 | 0.00 | 0.00 | 0.00 | 49 | 1032.6 |
| 20260505002113 | 71 | 357 | 0.0 | 0.0 | 0.00 | 0.00 | 0.00 | 50 | 1032.7 |
| 20260505001609 | 71 | 356 | 0.0 | 0.0 | 0.00 | 0.00 | 0.00 | 49 | 1032.4 |
| 20260505001107 | 72 | 356 | 0.0 | 1.0 | 0.00 | 0.00 | 0.00 | 49 | 1032.3 |
| 20260505000604 | 72 | 357 | 0.0 | 0.0 | 0.00 | 0.00 | 0.00 | 48 | 1032.5 |
| 20260504235558 | 73 | 6 | 0.0 | 0.0 | 0.00 | 0.00 | 0.00 | 48 | 1032.5 |
| 20260504235054 | 73 | 6 | 0.0 | 0.0 | 0.00 | 0.00 | 0.00 | 47 | 1032.4 |
| 20260504234551 | 73 | 7 | 0.0 | 0.0 | 0.00 | 0.00 | 0.00 | 47 | 1032.5 |
| 20260504234049 | 74 | 4 | 0.0 | 0.0 | 0.00 | 0.00 | 0.00 | 46 | 1032.5 |
| 20260504233544 | 74 | 354 | 0.0 | 0.0 | 0.00 | 0.00 | 0.00 | 46 | 1032.8 |
| 20260504233041 | 74 | 350 | 0.0 | 1.0 | 0.00 | 0.00 | 0.00 | 46 | 1032.7 |
| 20260504232538 | 74 | 350 | 0.0 | 0.0 | 0.00 | 0.00 | 0.00 | 46 | 1032.7 |
| 20260504232036 | 74 | 352 | 0.0 | 0.0 | 0.00 | 0.00 | 0.00 | 46 | 1032.8 |
| 20260504231532 | 74 | 14 | 0.0 | 0.0 | 0.00 | 0.00 | 0.00 | 46 | 1032.5 |
| 20260504231028 | 75 | 0 | 0.0 | 0.0 | 0.00 | 0.00 | 0.00 | 45 | 1032.5 |
| 20260504230524 | 75 | 356 | 1.0 | 1.0 | 0.00 | 0.00 | 0.00 | 43 | 1032.8 |
| 20260504230023 | 75 | 352 | 1.0 | 1.0 | 0.00 | 0.00 | 0.00 | 44 | 1032.8 |
| 20260504225520 | 75 | 348 | 1.0 | 2.0 | 0.00 | 0.00 | 0.00 | 44 | 1032.8 |
| 20260504225017 | 75 | 13 | 0.0 | 0.0 | 0.00 | 0.00 | 0.00 | 43 | 1032.8 |
| 20260504224514 | 75 | 13 | 0.0 | 0.0 | 0.00 | 0.00 | 0.00 | 45 | 1032.9 |
| 20260504224011 | 76 | 332 | 0.0 | 0.0 | 0.00 | 0.00 | 0.00 | 45 | 1032.9 |
| 20260504223507 | 76 | 18 | 0.0 | 0.0 | 0.00 | 0.00 | 0.00 | 43 | 1033.0 |
| 20260504223003 | 76 | 25 | 0.0 | 0.0 | 0.00 | 0.00 | 0.00 | 43 | 1032.8 |
| 20260504222500 | 76 | 0 | 0.0 | 0.0 | 0.00 | 0.00 | 0.00 | 45 | 1033.0 |
| 20260504221958 | 77 | 354 | 2.0 | 2.0 | 0.00 | 0.00 | 0.00 | 42 | 1032.9 |
| 20260504221455 | 77 | 300 | 1.0 | 2.0 | 0.00 | 0.00 | 0.00 | 39 | 1032.8 |
| 20260504220952 | 77 | 68 | 0.0 | 0.0 | 0.00 | 0.00 | 0.00 | 44 | 1033.0 |
| 20260504220448 | 78 | 21 | 0.0 | 0.0 | 0.00 | 0.00 | 0.00 | 40 | 1033.0 |
| 20260504215945 | 80 | 16 | 0.0 | 0.0 | 0.00 | 0.00 | 0.00 | 39 | 1033.1 |
| 20260504215442 | 79 | 19 | 0.0 | 0.0 | 0.00 | 0.00 | 0.00 | 38 | 1032.9 |
| 20260504214938 | 79 | 41 | 0.0 | 0.0 | 0.00 | 0.00 | 0.00 | 40 | 1033.1 |
| 20260504214435 | 78 | 233 | 0.0 | 0.0 | 0.00 | 0.00 | 0.00 | 41 | 1033.1 |
| 20260504213932 | 77 | 20 | 0.0 | 0.0 | 0.00 | 0.00 | 0.00 | 44 | 1033.0 |
| 20260504213428 | 77 | 344 | 2.0 | 2.0 | 0.00 | 0.00 | 0.00 | 46 | 1033.2 |
| 20260504212926 | 77 | 351 | 0.0 | 1.0 | 0.00 | 0.00 | 0.00 | 43 | 1033.4 |
| 20260504212421 | 78 | 25 | 0.0 | 0.0 | 0.00 | 0.00 | 0.00 | 45 | 1032.9 |
| 20260504211919 | 77 | 344 | 0.0 | 0.0 | 0.00 | 0.00 | 0.00 | 44 | 1033.2 |
| 20260504211415 | 78 | 5 | 0.0 | 0.0 | 0.00 | 0.00 | 0.00 | 43 | 1033.2 |
| 20260504210912 | 77 | 347 | 0.0 | 1.0 | 0.00 | 0.00 | 0.00 | 46 | 1033.1 |
| 20260504210409 | 77 | 348 | 0.0 | 0.0 | 0.00 | 0.00 | 0.00 | 46 | 1033.1 |
| 20260504205907 | 76 | 13 | 1.0 | 1.0 | 0.00 | 0.00 | 0.00 | 45 | 1033.3 |
| 20260504205404 | 76 | 26 | 0.0 | 0.0 | 0.00 | 0.00 | 0.00 | 47 | 1033.4 |
| 20260504204902 | 76 | 6 | 1.0 | 2.0 | 0.00 | 0.00 | 0.00 | 43 | 1033.4 |
| 20260504204400 | 77 | 343 | 3.0 | 3.0 | 0.00 | 0.00 | 0.00 | 44 | 1033.4 |
| 20260504203900 | 77 | 9 | 0.0 | 0.0 | 0.00 | 0.00 | 0.00 | 45 | 1033.3 |
| 20260504203356 | 77 | 7 | 0.0 | 0.0 | 0.00 | 0.00 | 0.00 | 42 | 1033.4 |
| 20260504202852 | 77 | 19 | 0.0 | 0.0 | 0.00 | 0.00 | 0.00 | 44 | 1033.5 |
| 20260504202349 | 78 | 35 | 0.0 | 0.0 | 0.00 | 0.00 | 0.00 | 47 | 1033.2 |
| 20260504201845 | 78 | 339 | 1.0 | 1.0 | 0.00 | 0.00 | 0.00 | 46 | 1033.6 |
| 20260504201343 | 77 | 29 | 0.0 | 0.0 | 0.00 | 0.00 | 0.00 | 45 | 1033.6 |
| 20260504200840 | 76 | 2 | 0.0 | 0.0 | 0.00 | 0.00 | 0.00 | 45 | 1033.5 |
| 20260504200337 | 76 | 21 | 0.0 | 0.0 | 0.00 | 0.00 | 0.00 | 45 | 1033.8 |
| 20260504195833 | 76 | 6 | 0.0 | 0.0 | 0.00 | 0.00 | 0.00 | 46 | 1033.7 |
| 20260504195329 | 77 | 334 | 1.0 | 2.0 | 0.00 | 0.00 | 0.00 | 43 | 1033.9 |
| 20260504194826 | 77 | 18 | 1.0 | 1.0 | 0.00 | 0.00 | 0.00 | 44 | 1034.2 |
| 20260504194322 | 77 | 356 | 0.0 | 1.0 | 0.00 | 0.00 | 0.00 | 39 | 1034.0 |
| 20260504193818 | 77 | 21 | 0.0 | 0.0 | 0.00 | 0.00 | 0.00 | 41 | 1034.1 |
| 20260504193316 | 76 | 10 | 2.0 | 2.0 | 0.00 | 0.00 | 0.00 | 45 | 1034.3 |
| 20260504192814 | 77 | 328 | 2.0 | 3.0 | 0.00 | 0.00 | 0.00 | 43 | 1034.1 |
| 20260504192312 | 80 | 342 | 1.0 | 1.0 | 0.00 | 0.00 | 0.00 | 41 | 1034.0 |
| 20260504191810 | 79 | 345 | 1.0 | 1.0 | 0.00 | 0.00 | 0.00 | 43 | 1034.2 |
| 20260504191307 | 79 | 11 | 0.0 | 0.0 | 0.00 | 0.00 | 0.00 | 44 | 1034.4 |
| 20260504190802 | 79 | 16 | 0.0 | 0.0 | 0.00 | 0.00 | 0.00 | 44 | 1034.5 |
| 20260504190259 | 80 | 17 | 0.0 | 0.0 | 0.00 | 0.00 | 0.00 | 43 | 1034.4 |
| 20260504185755 | 79 | 119 | 1.0 | 1.0 | 0.00 | 0.00 | 0.00 | 41 | 1034.5 |
| 20260504185253 | 78 | 10 | 1.0 | 2.0 | 0.00 | 0.00 | 0.00 | 46 | 1034.5 |
| 20260504184749 | 79 | 20 | 0.0 | 0.0 | 0.00 | 0.00 | 0.00 | 46 | 1034.8 |
| 20260504184244 | 77 | 10 | 1.0 | 1.0 | 0.00 | 0.00 | 0.00 | 46 | 1034.6 |
| 20260504183740 | 77 | 10 | 0.0 | 1.0 | 0.00 | 0.00 | 0.00 | 45 | 1035.0 |